Simultaneous Nadir Overpasses (SNOs) Predictions

Prediction of SNOs between FY3D and LANDSAT-8 Satellite Orbit:

Table of predicted SNOs for the next 14.0 days since TLE Epoch: 6/22/2019
Index Date (FY3D) Time (FY3D) Lat,Lon (FY3D) SZA (FY3D ) Date (LANDSAT-8) Time (LANDSAT-8) Lat,Lon (LANDSAT-8) SZA (LANDSAT-8 ) Distance(km) Time Diff (sec)
1 06/23/2019 00:58:51 70.54, 162.07 47.06 06/23/2019 00:59:40 70.55, 162.14 47.06 2.86 49
2 06/23/2019 01:49:32 -70.40, -30.39 133.09 06/23/2019 01:49:10 -70.43, -30.39 133.06 3.55 22
3 06/23/2019 02:39:59 69.42, 138.39 45.90 06/23/2019 02:38:53 69.45, 135.87 46.01 98.45 66
4 06/25/2019 17:15:18 70.54, -82.04 47.11 06/25/2019 17:16:10 70.54, -81.99 47.10 2.08 52
5 06/25/2019 18:06:00 -70.44, 85.42 132.99 06/25/2019 18:05:40 -70.43, 85.48 133.01 2.59 20
6 06/25/2019 18:56:28 69.52,-105.87 46.06 06/25/2019 18:55:21 69.56,-108.11 46.16 87.02 67
7 06/28/2019 09:31:44 70.53, 33.85 47.21 06/28/2019 09:32:39 70.53, 33.88 47.20 1.07 55
8 06/28/2019 10:22:26 -70.43,-158.68 132.90 06/28/2019 10:22:09 -70.43,-158.65 132.91 1.39 17
9 06/28/2019 11:12:56 69.62, 9.87 46.27 06/28/2019 11:11:48 69.66, 7.91 46.37 75.75 68
10 07/01/2019 01:48:11 70.53, 149.74 47.35 07/01/2019 01:49:09 70.52, 149.74 47.34 0.58 58
11 07/01/2019 02:38:53 -70.42, -42.77 132.76 07/01/2019 02:38:39 -70.42, -42.78 132.76 0.70 14
12 07/01/2019 03:29:25 69.72, 125.60 46.52 07/01/2019 03:28:16 69.76, 123.93 46.61 64.62 69
13 07/03/2019 18:04:38 70.52, -94.36 47.55 07/03/2019 18:05:39 70.51, -94.40 47.52 2.01 61
14 07/03/2019 18:55:20 -70.41, 73.13 132.57 07/03/2019 18:55:09 -70.40, 73.08 132.57 1.76 11
15 07/03/2019 19:45:54 69.82,-118.66 46.83 07/03/2019 19:44:44 69.85,-120.06 46.91 53.64 70




NCC Satellite Simultaneous Nadir Overpasses (SNOs) Prediction Service
